This demonstration page uses our WeatherBlox Daily Observations layout. Learn more.

Left ArrowRight Arrow

39.95238, -75.16362

Hourly Observations for April 20, 2015

Temp ( °F °C ) Dew Point ( °F °C ) Humidity (%) Winds ( mph kmh ) Pressure ( in mb ) Visibility ( mi km ) Precip ( " mm )
12:54 am 00:54 Cloudy 50 10 44 6.7 80 80 ENE 15 24 30.01 1016 10 16 0.00 0.00
1:54 am 01:54 Cloudy 51 10.6 45 7.2 80 80 E 15 24 29.96 1015 10 16 0.00 0.00
2:54 am 02:54 Cloudy with Light Rain 52 11.1 46 7.8 80 80 E 20 31 29.93 1013 10 16 0.00 0.03
3:00 am 03:00 Cloudy with Light Rain 52 11 46 8 82 82 E 17 28 29.94 1014 10 16 0.00 0.00
3:54 am 03:54 Cloudy with Light Rain 52 11.1 48 8.9 86 86 E 18 30 29.88 1012 10 16 0.03 0.76
4:00 am 04:00 Cloudy with Light Rain 52 11.1 48 8.9 86 86 E 21 33 29.88 1012 8 13 0.00 0.03
4:32 am 04:32 Cloudy with Light Rain 52 11 48 9 88 88 E 20 31 29.83 1010 8 13 0.00 0.00
4:54 am 04:54 Cloudy with Rain 52 11.1 49 9.4 89 89 E 20 31 29.81 1010 8 13 0.04 1.02
5:01 am 05:01 Cloudy with Heavy Rain 52 11.1 49 9.4 89 89 E 22 35 29.80 1009 3 5 0.03 0.76
5:54 am 05:54 Cloudy with Heavy Rain 54 12.2 51 10.6 90 90 E 17 28 29.78 1008 3 5 0.24 6.10
5:57 am 05:57 Cloudy with Rain 54 12.2 51 10.6 90 90 E 20 31 29.77 1008 3 4 0.01 0.25
6:13 am 06:13 Cloudy with Rain 55 12.8 52 11.1 90 90 E 20 31 29.77 1008 3 4 0.07 1.78
6:25 am 06:25 Cloudy with Rain 56 13.3 53 11.7 90 90 ESE 16 26 29.77 1008 2 3 0.15 3.81
6:36 am 06:36 Cloudy with Rain 56 13.3 54 12.2 93 93 E 17 28 29.77 1008 3 5 0.19 4.83
6:44 am 06:44 Cloudy with Rain 57 13.9 54 12.2 90 90 ESE 14 22 29.77 1008 2 3 0.22 5.59
6:54 am 06:54 Cloudy with Rain 57 13.9 55 12.8 93 93 E 16 26 29.75 1007 2 3 0.29 7.37
7:41 am 07:41 Cloudy with Heavy Rain 58 14.4 55 12.8 90 90 E 14 22 29.74 1007 2 3 0.27 6.86
7:47 am 07:47 Cloudy with Heavy Rain 58 14.4 55 12.8 90 90 ESE 10 17 29.74 1007 2 3 0.32 8.13
7:54 am 07:54 Cloudy with Heavy Rain 58 14.4 56 13.3 93 93 ESE 8 13 29.75 1008 2 3 0.36 9.14
7:56 am 07:56 Cloudy with Heavy Rain 57 14 55 13 94 94 ESE 6 9 29.77 1008 2 2 0.00 0.00
8:04 am 08:04 Cloudy with Heavy Rain 58 14.4 56 13.3 93 93 N 7 11 29.74 1007 1 1 0.09 2.29
8:30 am 08:30 Cloudy with Heavy Rain 57 14 55 13 94 94 NNE 9 15 29.74 1007 1 1 0.00 0.00
8:31 am 08:31 Cloudy with Heavy Rain 58 14.4 56 13.3 93 93 NNE 9 15 29.74 1007 1 2 0.66 16.76
8:41 am 08:41 Cloudy with Heavy Rain 58 14.4 56 13.3 93 93 NE 9 15 29.71 1006 2 2 0.73 18.54
8:54 am 08:54 Cloudy with Rain 58 14.4 56 13.3 93 93 NE 9 15 29.71 1006 2 2 0.79 20.07
9:10 am 09:10 Cloudy with Rain 59 15 57 13.9 93 93 NE 10 17 29.71 1006 2 3 0.06 1.52
9:29 am 09:29 Cloudy with Light Rain 58 14.4 57 13.9 97 97 NE 9 15 29.68 1005 2 3 0.08 2.03
9:54 am 09:54 Cloudy with Light Rain 59 15 57 13.9 93 93 NE 9 15 29.69 1005 2 3 0.10 2.54
10:17 am 10:17 Cloudy with Light Rain 60 15.6 58 14.4 93 93 NE 9 15 29.68 1005 2 3 0.01 0.25
10:41 am 10:41 Cloudy with Light Rain 60 15.6 58 14.4 93 93 NE 6 9 29.68 1005 3 5 0.02 0.51
10:54 am 10:54 Cloudy with Drizzle 60 15.6 59 15 96 96 ENE 5 7 29.68 1005 3 5 0.02 0.51
11:16 am 11:16 Cloudy with Light Rain 61 16 59 15 94 94 NE 3 6 29.68 1005 2 2 0.00 0.00
11:27 am 11:27 Cloudy with Light Rain 60 15.6 59 15 96 96 ENE 3 6 29.68 1005 2 3 0.01 0.25
11:38 am 11:38 Cloudy with Mist and Fog 61 16.1 60 15.6 97 97 Calm 29.68 1005 3 5 0.01 0.25
11:54 am 11:54 Cloudy with Mist and Fog 62 16.7 60 15.6 93 93 Calm 29.67 1005 4 6 0.01 0.25
12:31 pm 12:31 Cloudy with Mist and Fog 64 17.8 63 17.2 96 96 WSW 5 7 29.65 1004 5 8 0.00 0.00
12:44 pm 12:44 Mostly Cloudy with Mist and Fog 65 18.3 63 17.2 93 93 SW 6 9 29.65 1004 6 10 0.00 0.00
12:51 pm 12:51 Mostly Cloudy 66 19 63 17 88 88 SW 8 13 29.65 1004 7 11 0.00 0.00
12:54 pm 12:54 Mostly Cloudy 66 18.9 63 17.2 90 90 SW 7 11 29.65 1004 8 13 0.00 0.00
1:54 pm 13:54 Mostly Cloudy 68 20 61 16.1 78 78 WNW 8 13 29.64 1004 10 16 0.00 0.00
2:54 pm 14:54 Partly Cloudy 72 22.2 62 16.7 71 71 S 5 7 29.61 1003 10 16 0.00 0.00
3:54 pm 15:54 Mostly Cloudy 76 24.4 63 17.2 64 64 VRB 6 9 29.59 1002 10 16 0.00 0.00
4:54 pm 16:54 Mostly Cloudy 75 23.9 61 16.1 62 62 S 8 13 29.60 1002 10 16 0.00 0.00
5:54 pm 17:54 Mostly Cloudy 74 23.3 61 16.1 64 64 S 10 17 29.58 1002 10 16 0.00 0.00
6:54 pm 18:54 Mostly Cloudy 73 22.8 61 16.1 66 66 SSE 12 19 29.58 1002 10 16 0.00 0.00
7:54 pm 19:54 Mostly Cloudy 70 21.1 61 16.1 73 73 SSE 12 19 29.57 1001 10 16 0.00 0.00
8:54 pm 20:54 Mostly Cloudy 69 20.6 61 16.1 76 76 SSE 12 19 29.57 1001 10 16 0.00 0.00
9:54 pm 21:54 Mostly Cloudy 68 20 61 16.1 78 78 SE 7 11 29.55 1001 10 16 0.00 0.00
10:54 pm 22:54 Mostly Cloudy 68 20 60 15.6 76 76 S 13 20 29.55 1001 10 16 0.00 0.03
11:22 pm 23:22 Windy with Storms Likely 68 20 60 15.6 76 76 SW 22 35 29.59 1002 8 13 0.00 0.03
11:24 pm 23:24 Windy with Storms Likely 68 20 59 15 73 73 SW 21 33 29.59 1002 6 10 0.00 0.03
11:40 pm 23:40 Cloudy with Heavy Rain 63 17.2 56 13.3 78 78 WSW 18 30 29.59 1002 7 11 0.02 0.51
11:54 pm 23:54 Cloudy with Light Rain 63 17.2 56 13.3 78 78 WSW 18 30 29.58 1002 9 14 0.03 0.76

Powered by AerisWeather